Regional Weather Roundup
Issued by NWS

Home | Current Version | Previous Version | Graphics & Text | Print | Product List | Glossary On
Versions: 1 2 3 4 5 6 7 8 9 10 11 12 13 14 15 16 17 18 19 20 21 22 23 24 25 26 27 28 29 30 31 32 33 34 35 36 37 38 39 40 41 42 43 44 45 46 47 48 49 50
000
ASUS43 KLOT 230303
RWRIL

ILLINOIS REGIONAL WEATHER ROUNDUP
NATIONAL WEATHER SERVICE CHICAGO/ROMEOVILLE IL
1000 PM CDT SUN APR 22 2018

NOTE: "FAIR" INDICATES FEW OR NO CLOUDS BELOW 12,000 FEET WITH NO
SIGNIFICANT WEATHER AND/OR OBSTRUCTIONS TO VISIBILITY.

* THESE STATIONS ARE NOT UNDER NWS QUALITY CONTROL. THEY ALSO MAY NOT
  REPORT WEATHER SUCH AS PRECIPITATION OR FOG.

ILZ001-002-007-009-015-016-024-230400-
NORTHWEST ILLINOIS

CITY           SKY/WX    TMP DP  RH WIND       PRES   REMARKS
MOLINE         FAIR      56  26  31 NE15      30.19R
STERLING*      FAIR      52  28  39 NE12      30.22F
SAVANNA*       FAIR      48  28  45 NE8       30.24S
$$

ILZ003-004-008-010-011-017-018-230400-
NORTH CENTRAL ILLINOIS

CITY           SKY/WX    TMP DP  RH WIND       PRES   REMARKS
ROCKFORD       MOCLDY    50  26  39 E10       30.27S
FREEPORT*      FAIR      47  27  45 NE5       30.27S
ROCHELLE*      FAIR      48  29  48 NE9       30.25S
DE KALB*       FAIR      48  27  44 E9        30.25F
PERU*          FAIR      54  31  41 NE10      30.21F
$$

ILZ005-006-012>014-019>023-230400-
NORTHEAST ILLINOIS

CITY           SKY/WX    TMP DP  RH WIND       PRES   REMARKS
CHICAGO-OHARE  MOCLDY    46  29  51 NE9       30.27S
CHICAGO-MIDWAY MOCLDY    48  30  49 NE9       30.26F
AURORA         FAIR      50  25  37 NE15G25   30.24S
LANSING*       FAIR      43  35  73 NE10      30.25F
JOLIET*        FAIR      51  29  43 NE10      30.24S
WAUKEGAN       FAIR      43  29  57 NE9       30.27F
DUPAGE AIRPORT FAIR      47  27  45 NE14      30.25S
KANKAKEE*      FAIR      46  32  59 NE9       30.22S
WHEELING       FAIR      45  30  55 NE5       30.30S
MORRIS*        FAIR      49  29  47 NE7       30.22S
ROMEOVILLE*    FAIR      47  28  47 NE16      30.24S
NORTHERLY ISL    N/A     44  30  58 MISG        N/A
$$

LMZ740>746-230400-
SOUTHERN LAKE MICHIGAN

STATION/POSITION SKY/WX   TEMP    WIND        PRES    VSBY  WAVE
                          AIR SEA DIR/SP/G                  HT/PER
                          (F)     (DEG/KT/KT) (MB)    (MI)  (FT/S)
HARRISON CRIB              44      50/ 14/ 15   N/A
BURNHAM HARBOR             43      10/  8/ 11   N/A
CALUMET HARBOR             43     350/  6/ 12 1024.4F
BURNS HARBOR               42      60/  9/ 10 1025.4R
MICHIGAN CITY              42      40/ 10/ 11   N/A
$$

ILZ025>027-034>036-040-047-049-050-058-095>099-230400-
WEST-CENTRAL ILLINOIS

CITY           SKY/WX    TMP DP  RH WIND       PRES   REMARKS
QUINCY         CLOUDY    58  29  33 NE9       30.11S
GALESBURG*     FAIR      57  32  38 NE12      30.18S
MACOMB*        CLOUDY    52  31  44 NE12      30.17S
JACKSONVILLE*  CLOUDY    57  31  36 NE14      30.12R
PITTSFIELD*    CLOUDY    62  31  31 NE13      30.11S
$$

ILZ028>032-037-038-041>044-048-051>054-059>061-230400-
CENTRAL ILLINOIS

CITY           SKY/WX    TMP DP  RH WIND       PRES   REMARKS
PONTIAC        FAIR      50  31  49 NE15      30.20S
BLOOMINGTON    FAIR      50  33  52 E10       30.17S
DECATUR        FAIR      56  33  42 E16       30.12S
PEORIA           N/A    N/A N/A N/A MISG      30.18R
LACON*         FAIR      54  28  37 NE10G16   30.19R
LINCOLN*       FAIR      56  35  45 NE10      30.14S
SPRINGFIELD    FAIR      58  32  37 NE13      30.12R
TAYLORVILLE    CLOUDY    60  32  35 E7        30.11S
$$

ILZ033-039-045-046-055>057-062-063-230400-
EAST-CENTRAL ILLINOIS

CITY           SKY/WX    TMP DP  RH WIND       PRES   REMARKS
CHAMPAIGN      FAIR      55  33  43 NE12      30.14F
DANVILLE*      FAIR      55  32  41 NE8       30.14S
RANTOUL*       FAIR      55  35  46 NE10      30.16S
MATTOON        CLOUDY    59  32  36 NE14      30.10S
PARIS*         FAIR      57  35  43 NE10      30.14S
$$

ILZ079-100>102-230400-
SOUTHWEST ILLINOIS

CITY           SKY/WX    TMP DP  RH WIND       PRES   REMARKS
ALTON          CLOUDY    59  48  67 E13       30.08R
CAHOKIA*       LGT RAIN  57  53  86 E12       30.05R
SPARTA*        LGT RAIN  56  56 100 E17       30.02S
$$

ILZ064>066-069>071-074>076-080>082-084>086-088>090-092>094-230400-
SOUTH-CENTRAL ILLINOIS

CITY           SKY/WX    TMP DP  RH WIND       PRES   REMARKS
CARBONDALE     RAIN      57  55  93 E12       29.99S FOG
CAIRO*         RAIN      57  56  97 NE12      29.94S
EFFINGHAM*     CLOUDY    60  37  42 NE7       30.10S
MARION         LGT RAIN  57  56  99 E9        30.01S
MT. VERNON     LGT RAIN  57  54  89 NE8       30.04F
CENTRALIA*     CLOUDY    59  55  85 NE8       30.05S
SALEM*         CLOUDY    61  46  58 E8        30.06S
METROPOLIS*    RAIN      58  56  94 E13G22    29.97S
$$

ILZ067-068-072-073-078-083-087-091-230400-
SOUTHEAST ILLINOIS

CITY           SKY/WX    TMP DP  RH WIND       PRES   REMARKS
LAWRENCEVILLE  CLOUDY    61  39  44 NE12      30.08S
FLORA*         LGT RAIN  60  47  62 NE8       30.06F
FAIRFIELD*     CLOUDY    58  53  83 NE6       30.04F
HARRISBURG*    LGT RAIN  57  56  95 NE9       30.03R
ROBINSON*      CLOUDY    60  33  36 E10       30.10S
CARMI*         LGT RAIN  56  55  95 NE3       30.04S
$$

ABBREVIATIONS USED IN REMARKS
   TC - TEMPERATURE IN CELSIUS
  WCI - WIND CHILL INDEX
   HX - HEAT INDEX
  VSB - VISIBILITY
$$





USA.gov is the U.S. government's official web portal to all federal, state and local government web resources and services.